[[{"header":{"parameterUnit":"m.s-1","parameterCategory":1,"la1":30.2991,"la2":30.254,"lo1":-89.0895,"lo2":-89.0444,"dx":0.0017,"dy":0.0017,"nx":28,"ny":28,"refTime":"2022-12-14T09:00:00:Z","depth":0,"parameterNumber":2,"parameterNumberName":"U-component_of_WINDS"},"data":[0,0,0,0,0,0,0,0,0,0,0,0,0,0,0,0,0,0,0,0,0,0,0,0,0,0,0,0,0,0,0,0,0,0,0,0,0,0,0,0,0,0,0,0,0,0,0,0,0,0,0,0,0,0,0,0,0,0,1.9626,1.9625,0,1.9489,1.9488,1.9486,1.9394,1.9393,1.9392,1.9392,1.9253,1.925,1.9247,0,0,0,0,0,0,0,0,0,0,0,0,0,1.9809,1.9806,1.9626,1.9624,1.9623,1.9489,1.9487,1.9486,1.9394,1.9393,1.9392,1.9391,1.9254,1.925,1.9246,0,0,0,0,0,0,0,0,0,0,0,0,0,1.9707,1.9805,1.9627,1.9561,1.9554,1.949,1.9487,1.9485,1.9394,1.9393,1.9392,1.9391,1.9255,1.925,1.9246,1.9237,0,0,1.9232,1.923,0,0,0,0,0,0,0,0,1.9713,1.97,1.9572,1.9565,1.9557,1.9457,1.9501,1.9402,1.9394,1.9455,1.9392,1.9391,1.9322,1.9311,1.9288,1.923,1.9224,1.9231,1.9228,1.9226,1.9225,0,0,0,0,0,0,0,1.972,1.9706,1.9572,1.957,1.9561,1.9538,1.9523,1.9482,1.9395,1.9449,1.9442,1.9427,1.9317,1.9293,1.9284,1.9222,1.9231,1.9227,1.9224,1.9222,1.915,1.9151,0,0,0,0,0,0,1.9737,1.9712,1.9576,1.9568,1.9634,1.9536,1.9518,1.949,1.9395,1.938,1.9428,1.9423,1.9301,1.9289,1.9279,1.9262,1.9226,1.9222,1.9219,1.9149,1.915,1.9151,0,0,0,0,0,0,1.9741,1.9726,1.9582,1.9638,1.9618,1.9534,1.9503,1.9488,1.9463,1.938,1.9364,1.9419,1.93,1.9285,1.9248,1.9256,1.922,1.9216,1.9148,1.915,1.9151,1.9228,0,0,0,0,0,0,1.9747,1.9728,1.9724,1.9639,1.9615,1.9553,1.9504,1.9486,1.9455,1.9448,1.9367,1.9352,1.9298,1.9255,1.9243,1.9249,1.9212,1.9147,1.9149,1.915,1.9225,1.9232,1.9238,0,0,0,0,0,1.9754,1.9751,1.9724,1.9708,1.9608,1.9554,1.954,1.9478,1.9457,1.9451,1.9398,1.9355,1.9257,1.9252,1.9238,1.9242,1.9146,1.9148,1.915,1.9221,1.9231,1.9238,0,0,0,0,0,0,1.9839,1.9739,1.9707,1.9677,1.9625,1.9538,1.953,1.9489,1.9442,1.9437,1.9362,1.9344,1.9314,1.9274,1.9271,1.9228,1.9196,1.9196,1.9256,1.9263,1.927,1.9281,1.9208,0,0,0,0,0,1.9855,1.9819,1.9733,1.9714,1.969,1.9615,1.9589,1.9545,1.9488,1.9465,1.9409,1.9355,1.9312,1.9286,1.9241,1.9218,1.9199,1.9214,1.9221,1.9227,1.9227,1.9212,1.9218,1.9158,1.9158,1.9157,0,0,1.9886,1.9826,1.9809,1.973,1.9684,1.9649,1.9597,1.9562,1.9535,1.946,1.9421,1.9378,1.9313,1.9283,1.9267,1.9249,1.924,1.923,1.9235,1.9232,1.9215,1.9221,1.9226,1.9159,1.9159,1.9158,0,0,1.9925,1.9876,1.9855,1.9811,1.9742,1.9692,1.9687,1.9607,1.9575,1.9535,1.9478,1.9445,1.9373,1.9329,1.9298,1.932,1.9279,1.9308,1.9344,1.933,1.9335,1.9339,1.9347,1.9351,1.9309,1.9309,1.9309,0,1.9972,1.9917,1.985,1.9818,1.9785,1.9716,1.9694,1.9654,1.9575,1.9554,1.9535,1.9443,1.9394,1.9353,1.9358,1.9335,1.9327,1.9317,1.934,1.9343,1.9346,1.9353,1.9356,1.9313,1.9312,1.9312,1.9312,0,1.9979,1.9941,1.9933,1.9858,1.9824,1.9798,1.9727,1.9701,1.966,1.9613,1.9573,1.9512,1.9454,1.9441,1.9401,1.9394,1.9385,1.9354,1.9321,1.9357,1.9362,1.9364,1.9319,1.9317,1.9316,1.9315,0,0,2.0068,1.9956,1.9954,1.9919,1.9838,1.9808,1.9779,1.9722,1.9702,1.9649,1.9623,1.9564,1.9534,1.9498,1.9453,1.9441,1.9463,1.9411,1.9408,1.9423,1.9452,1.9476,1.948,1.9435,1.9435,1.9436,1.9457,0,2.0094,2.0038,1.9977,1.9941,1.9906,1.984,1.9814,1.9762,1.9717,1.9681,1.963,1.959,1.9554,1.9532,1.9517,1.9464,1.9468,1.9461,1.941,1.9409,1.9429,1.9482,1.9507,1.9531,1.9459,1.9459,1.9459,0,2.0118,2.0069,2.003,1.9953,1.9936,1.9914,1.9857,1.9823,1.9763,1.9731,1.9691,1.9643,1.9609,1.958,1.9532,1.9529,1.9504,1.9475,1.9475,1.9467,1.9436,1.9477,1.9536,1.954,1.9462,1.9461,1.9461,0,2.0187,2.0111,2.0078,2.005,1.9959,1.9945,1.9907,1.9846,1.9816,1.9766,1.9746,1.9694,1.9665,1.9626,1.9564,1.9549,1.9523,1.9489,1.9496,1.9498,1.9494,1.9495,1.955,1.9478,1.9478,1.9478,1.9478,0,2.0223,2.0202,2.0107,2.0087,2.0062,1.9992,1.9969,1.9925,1.9871,1.9841,1.978,1.9754,1.9675,1.9639,1.9591,1.9559,1.9546,1.952,1.9507,1.9525,1.9528,1.9508,1.9505,1.9479,1.9479,1.9479,1.9479,0,2.0295,2.0231,2.0191,2.0108,2.0087,2.0072,2.0001,1.9979,1.993,1.9893,1.9881,1.9805,1.9759,1.9694,1.9629,1.9597,1.9572,1.9552,1.9592,1.9585,1.9596,1.9596,1.964,1.9642,1.957,1.957,1.9571,0,2.0322,2.0304,2.022,2.0195,2.0159,2.012,2.0089,2.002,1.999,1.9921,1.9907,1.9857,1.9813,1.9744,1.9683,1.9633,1.9611,1.963,1.9603,1.9622,1.9612,1.9613,1.9611,1.9637,1.9638,1.9639,1.964,0,2.0377,2.0347,2.0304,2.0251,2.0215,2.017,2.0122,2.0105,2.0026,1.9996,1.9948,1.9915,1.9848,1.9799,1.9741,1.9701,1.9658,1.9649,1.9648,1.9666,1.969,1.9677,1.961,1.9648,1.9647,1.9647,1.9646,1.9646,2.0427,2.0409,2.0346,2.0301,2.0258,2.0214,2.0189,2.0138,2.0097,2.0037,1.9999,1.9954,1.9894,1.9811,1.9774,1.9738,1.972,1.9718,1.9718,1.9719,1.9725,1.9696,1.9727,1.9727,1.9726,1.9726,1.9726,0,2.0479,2.0436,2.0395,2.033,2.0294,2.0256,2.0201,2.0174,2.0134,2.0082,2.0041,1.9986,1.9939,1.9874,1.9822,1.9806,1.9784,1.9794,1.9795,1.9786,1.9744,1.975,1.9812,1.9812,1.9812,1.9812,1.9812,1.9812,2.0502,2.0468,2.043,2.0375,2.0331,2.0286,2.0258,2.0217,2.0176,2.0118,2.0078,2.0036,1.9979,1.9922,1.9877,1.9859,1.9843,1.9859,1.9835,1.9797,1.9789,1.9782,1.9787,1.9856,1.9856,1.988,1.988,1.9881]},{"header":{"parameterUnit":"m.s-1","parameterCategory":1,"la1":30.2991,"la2":30.254,"lo1":-89.0895,"lo2":-89.0444,"dx":0.0017,"dy":0.0017,"nx":28,"ny":28,"refTime":"2022-12-14T09:00:00:Z","depth":0,"parameterNumber":3,"parameterNumberName":"V-component_of_WINDS"},"data":[0,0,0,0,0,0,0,0,0,0,0,0,0,0,0,0,0,0,0,0,0,0,0,0,0,0,0,0,0,0,0,0,0,0,0,0,0,0,0,0,0,0,0,0,0,0,0,0,0,0,0,0,0,0,0,0,0,0,9.2807,9.281,0,9.3088,9.3091,9.3094,9.3138,9.3135,9.3133,9.3131,9.3414,9.3424,9.3434,0,0,0,0,0,0,0,0,0,0,0,0,0,9.2303,9.2312,9.2807,9.281,9.2814,9.3088,9.3091,9.3095,9.3138,9.3135,9.3132,9.3129,9.3411,9.3423,9.3435,0,0,0,0,0,0,0,0,0,0,0,0,0,9.2546,9.2315,9.2806,9.2868,9.2877,9.3087,9.3092,9.3096,9.3139,9.3135,9.3131,9.3128,9.3407,9.3422,9.3436,9.3603,0,0,9.3482,9.3488,0,0,0,0,0,0,0,0,9.2532,9.2565,9.2856,9.2864,9.2874,9.3074,9.3018,9.3266,9.314,9.3039,9.313,9.3126,9.3304,9.3327,9.3388,9.3616,9.3628,9.3483,9.3492,9.3498,9.3502,0,0,0,0,0,0,0,9.2515,9.2553,9.2918,9.286,9.2871,9.2881,9.2911,9.3065,9.3189,9.3048,9.3052,9.3084,9.3308,9.3373,9.3395,9.3632,9.3482,9.3496,9.3505,9.3511,9.4012,9.4016,0,0,0,0,0,0,9.2488,9.2538,9.2909,9.2926,9.2691,9.2893,9.2927,9.3014,9.3187,9.321,9.3087,9.3085,9.335,9.3377,9.3405,9.3613,9.3498,9.3512,9.352,9.4007,9.4013,9.4018,0,0,0,0,0,0,9.2477,9.2521,9.2898,9.2734,9.2782,9.2906,9.3003,9.3021,9.3087,9.3218,9.3239,9.3132,9.3348,9.3384,9.3554,9.3623,9.3519,9.3532,9.4002,9.4009,9.4015,9.4029,0,0,0,0,0,0,9.2462,9.2516,9.2582,9.2735,9.2791,9.3043,9.3007,9.3029,9.3113,9.3113,9.3265,9.3286,9.3348,9.3531,9.3568,9.3642,9.3544,9.3997,9.4005,9.4013,9.4023,9.4035,9.4046,0,0,0,0,0,9.2444,9.2573,9.2585,9.263,9.2876,9.3047,9.3079,9.3148,9.3118,9.3185,9.3268,9.3282,9.3609,9.3548,9.359,9.3669,9.3993,9.4003,9.4012,9.4018,9.4033,9.4045,0,0,0,0,0,0,9.2424,9.2595,9.261,9.2792,9.2905,9.3054,9.314,9.3162,9.3285,9.3279,9.3359,9.3393,9.3559,9.363,9.356,9.384,9.3798,9.3817,9.3787,9.3803,9.3814,9.3794,9.3556,0,0,0,0,0,9.2441,9.2567,9.2709,9.2856,9.2912,9.3016,9.3093,9.3137,9.3256,9.3304,9.34,9.3515,9.3643,9.3727,9.3852,9.4032,9.4067,9.4107,9.4118,9.4127,9.4143,9.4245,9.4265,9.405,9.405,9.405,0,0,9.2477,9.2586,9.2661,9.2855,9.2948,9.3076,9.3056,9.3192,9.3288,9.3324,9.3492,9.3566,9.3698,9.3874,9.3957,9.3939,9.421,9.414,9.4146,9.4158,9.4257,9.4278,9.4296,9.4057,9.4056,9.4055,0,0,9.2609,9.2704,9.2838,9.2931,9.3072,9.3141,9.3172,9.3319,9.337,9.3539,9.357,9.3683,9.3903,9.3997,9.4073,9.424,9.4257,9.4278,9.4339,9.4437,9.4454,9.447,9.4531,9.4552,9.4293,9.4293,9.4293,0,9.2636,9.2832,9.2904,9.304,9.3124,9.3164,9.33,9.3387,9.356,9.3617,9.3595,9.3873,9.3965,9.4164,9.4205,9.4265,9.4304,9.4263,9.4446,9.4463,9.4478,9.4538,9.456,9.4295,9.4295,9.4295,9.4295,0,9.2859,9.2994,9.3085,9.3255,9.3349,9.3484,9.3575,9.3662,9.3696,9.3766,9.3938,9.4049,9.4199,9.4249,9.4283,9.4454,9.4439,9.443,9.4391,9.4499,9.4557,9.458,9.4298,9.4297,9.4297,9.4296,0,0,9.2989,9.3196,9.3228,9.3306,9.3463,9.3569,9.3704,9.3852,9.3926,9.4043,9.416,9.4345,9.4339,9.4425,9.4471,9.4557,9.4684,9.4538,9.4543,9.4563,9.488,9.4887,9.4912,9.4695,9.47,9.4703,9.487,0,9.3141,9.3388,9.3456,9.3664,9.379,9.3829,9.3947,9.4056,9.4125,9.4241,9.4316,9.4447,9.4427,9.448,9.4567,9.465,9.4749,9.4639,9.4805,9.481,9.4774,9.4942,9.495,9.5102,9.4892,9.4896,9.4899,0,9.3353,9.3477,9.3698,9.3841,9.3896,9.4002,9.4143,9.4253,9.4377,9.4421,9.4517,9.4555,9.4698,9.4648,9.4846,9.477,9.4841,9.4892,9.4899,9.492,9.4863,9.4969,9.5152,9.5175,9.4934,9.4932,9.4929,0,9.3428,9.365,9.3811,9.3876,9.4045,9.4119,9.4193,9.4313,9.4398,9.452,9.4576,9.4712,9.4788,9.4892,9.4965,9.4922,9.5158,9.5114,9.5199,9.5197,9.5249,9.5245,9.5448,9.529,9.529,9.529,9.5289,0,9.3593,9.3727,9.3848,9.3947,9.4099,9.4174,9.4321,9.4396,9.4503,9.4617,9.4657,9.4763,9.4852,9.497,9.5027,9.5184,9.5217,9.5256,9.5271,9.5255,9.525,9.5305,9.5297,9.5296,9.5294,9.5293,9.5292,0,9.3703,9.3789,9.3969,9.4114,9.4154,9.4259,9.4384,9.4481,9.455,9.4695,9.4733,9.4842,9.4983,9.5065,9.5242,9.5281,9.5455,9.5463,9.5414,9.5421,9.5502,9.5494,9.575,9.5788,9.5602,9.5603,9.5605,0,9.3804,9.3909,9.4066,9.4146,9.4222,9.435,9.4437,9.4514,9.4603,9.4752,9.4832,9.4975,9.5095,9.5317,9.5412,9.5548,9.5561,9.5641,9.5582,9.5563,9.5566,9.556,9.5571,9.5652,9.5654,9.5655,9.5656,0,9.3975,9.4012,9.4137,9.4277,9.438,9.4493,9.4606,9.4668,9.4765,9.4862,9.5008,9.51,9.5282,9.5424,9.5568,9.5643,9.5666,9.5674,9.5701,9.5687,9.5655,9.5676,9.5444,9.5668,9.5667,9.5666,9.5665,9.5665,9.4086,9.4181,9.4307,9.4445,9.4538,9.4642,9.4742,9.4824,9.4947,9.5102,9.5139,9.5292,9.5413,9.5609,9.5687,9.5808,9.5795,9.5833,9.5844,9.5853,9.5857,9.5634,9.5834,9.5834,9.5833,9.5833,9.5833,0,9.4261,9.4344,9.4469,9.4627,9.4734,9.4747,9.4872,9.4962,9.5096,9.5208,9.5324,9.5492,9.563,9.5735,9.5876,9.5953,9.5967,9.5987,9.5984,9.6001,9.5859,9.5823,9.5974,9.5974,9.5974,9.5974,9.5974,9.5973,9.4365,9.4527,9.4579,9.4788,9.487,9.5021,9.5092,9.5188,9.5278,9.5463,9.5579,9.5646,9.5756,9.5906,9.6033,9.606,9.6111,9.6131,9.616,9.6026,9.6011,9.5997,9.5963,9.6141,9.6141,9.6292,9.6294,9.6295]}]]